QPF
0.02 0.02 0.02 0.03 0.02 0.02 0.02 0.02 0.02 0.02 0.01 0.01 0.01 0.01 0.01 0.02 0.04 0.06 0.05 0.05 0.05 0.04 0.03 0.03 0.02 0.02 0.03 0.04 0.06 0.06 0.05 0.04 0.05 0.05 0.06 0.06 0.06 0.06
0.01 0.02 0.02 0.02 0.02 0.02 0.02 0.02 0.02 0.02 0.01 0.01 0.02 0.01 0.01 0.01 0.01 0.02 0.04 0.06 0.05 0.04 0.03 0.03 0.03 0.02 0.02 0.02 0.03 0.04 0.04 0.03 0.03 0.04 0.04 0.05 0.05 0.05
0.01 0.01 0.01 0.01 0.02 0.02 0.02 0.02 0.02 0.02 0.02 0.01 0.01 0.01 0.01 0.01 0.01 0.02 0.02 0.03 0.03 0.03 0.03 0.03 0.03 0.02 0.02 0.02 0.03 0.03 0.04 0.04 0.04 0.05 0.05 0.04 0.05 0.05
0.01 0.01 0.01 0.01 0.02 0.01 0.02 0.02 0.03 0.03 0.03 0.02 0.02 0.01 0.01 0.01 0.01 0.02 0.02 0.02 0.02 0.03 0.03 0.03 0.03 0.03 0.02 0.02 0.02 0.02 0.02 0.03 0.03 0.04 0.05 0.05 0.05 0.05
0.01 0.01 0.01 0.02 0.02 0.02 0.03 0.03 0.03 0.03 0.03 0.03 0.03 0.03 0.03 0.02 0.02 0.01 0.01 0.02 0.02 0.02 0.02 0.02 0.03 0.03 0.03 0.02 0.02 0.01 0.02 0.03 0.03 0.03 0.03 0.03 0.03 0.04
0.01 0.01 0.01 0.02 0.02 0.02 0.02 0.02 0.02 0.02 0.02 0.02 0.02 0.02 0.02 0.02 0.02 0.02 0.01 0.01 0.01 0.01 0.01 0.02 0.02 0.03 0.03 0.03 0.02 0.02 0.02 0.02 0.02 0.01 0.02 0.02 0.03 0.03
0.01 0.01 0.01 0.01 0.01 0.01 0.01 0.01 0.01 0.01 0.01 0.01 0.01 0.01 0.01 0.01 0.00 0.01 0.01 0.01 0.01 0.01 0.01 0.01 0.01 0.01 0.01 0.01 0.02 0.02 0.02 0.01 0.01 0.01 0.01 0.01 0.02 0.02
0.01 0.01 0.01 0.01 0.01 0.02 0.02 0.02 0.02 0.02 0.01 0.01 0.01 0.01 0.01 0.01 0.01 0.01 0.01 0.01 0.01 0.01 0.01 0.00 0.00 0.00 0.00 0.00 0.01 0.01 0.01 0.01 0.01 0.01 0.01 0.01 0.01 0.02
0.01 0.01 0.01 0.01 0.01 0.01 0.01 0.01 0.01 0.01 0.01 0.01 0.01 0.01 0.01 0.01 0.01 0.01 0.01 0.00 0.00 0.00 0.00 0.00 0.00 0.00 0.00 0.00 0.01 0.01 0.01 0.01 0.01 0.01 0.01 0.01 0.01 0.02
0.01 0.01 0.01 0.01 0.02 0.02 0.01 0.01 0.01 0.01 0.01 0.01 0.01 0.01 0.01 0.01 0.01 0.01 0.01 0.00 0.00 0.00 0.00 0.00 0.00 0.00 0.00 0.00 0.00 0.00 0.00 0.00 0.00 0.00 0.01 0.01 0.01 0.01
0.01 0.01 0.01 0.01 0.01 0.01 0.01 0.01 0.01 0.01 0.01 0.01 0.01 0.01 0.01 0.01 0.01 0.01 0.01 0.01 0.00 0.00 0.00 0.00 0.00 0.00 0.00 0.00 0.00 0.00 0.00 0.00 0.00 0.00 0.01 0.01 0.01 0.01
0.01 0.01 0.01 0.01 0.01 0.01 0.01 0.01 0.02 0.01 0.01 0.01 0.01 0.01 0.01 0.01 0.01 0.00 0.00 0.01 0.01 0.00 0.00 0.00 0.00 0.00 0.00 0.00 0.00 0.00 0.00 0.00 0.00 0.00 0.01 0.01 0.01 0.01
0.01 0.01 0.01 0.01 0.01 0.01 0.01 0.01 0.01 0.01 0.01 0.01 0.01 0.01 0.01 0.01 0.01 0.01 0.01 0.00 0.00 0.00 0.00 0.00 0.01 0.01 0.01 0.01 0.00 0.00 0.00 0.00 0.00 0.00 0.00 0.01 0.01 0.02
0.01 0.01 0.01 0.01 0.01 0.01 0.01 0.01 0.02 0.01 0.01 0.01 0.01 0.01 0.01 0.01 0.01 0.01 0.01 0.00 0.00 0.00 0.00 0.00 0.01 0.01 0.01 0.01 0.00 0.00 0.00 0.00 0.01 0.01 0.01 0.01 0.01 0.01
0.02 0.02 0.02 0.02 0.02 0.01 0.01 0.01 0.01 0.01 0.01 0.01 0.01 0.01 0.01 0.01 0.01 0.01 0.00 0.00 0.00 0.00 0.00 0.00 0.00 0.00 0.01 0.02 0.01 0.01 0.01 0.01 0.01 0.02 0.01 0.01 0.01 0.01
0.03 0.03 0.03 0.02 0.02 0.02 0.02 0.01 0.01 0.01 0.01 0.01 0.01 0.01 0.01 0.01 0.01 0.01 0.00 0.00 0.00 0.00 0.00 0.00 0.00 0.00 0.01 0.01 0.01 0.01 0.02 0.02 0.01 0.01 0.00 0.00 0.00 0.01
0.02 0.03 0.03 0.03 0.03 0.03 0.02 0.01 0.01 0.01 0.01 0.01 0.01 0.01 0.01 0.01 0.01 0.01 0.00 0.00 0.01 0.01 0.00 0.00 0.00 0.00 0.01 0.01 0.01 0.01 0.02 0.02 0.01 0.01 0.00 0.00 0.01 0.01
0.02 0.02 0.03 0.02 0.02 0.02 0.02 0.01 0.01 0.01 0.01 0.01 0.01 0.01 0.01 0.01 0.00 0.00 0.00 0.01 0.01 0.01 0.01 0.01 0.01 0.01 0.01 0.01 0.01 0.01 0.01 0.01 0.02 0.01 0.01 0.01 0.01 0.01
0.03 0.02 0.02 0.02 0.02 0.02 0.02 0.01 0.01 0.01 0.01 0.01 0.01 0.01 0.01 0.01 0.00 0.00 0.00 0.01 0.00 0.00 0.01 0.01 0.01 0.02 0.02 0.01 0.01 0.01 0.01 0.02 0.02 0.02 0.02 0.01 0.01 0.01
0.02 0.02 0.02 0.02 0.01 0.01 0.01 0.02 0.02 0.02 0.01 0.01 0.01 0.01 0.01 0.01 0.01 0.00 0.01 0.01 0.01 0.01 0.00 0.01 0.01 0.02 0.02 0.02 0.02 0.01 0.01 0.02 0.03 0.03 0.02 0.01 0.01 0.01
0.01 0.01 0.01 0.01 0.01 0.01 0.01 0.01 0.01 0.01 0.01 0.01 0.01 0.01 0.01 0.01 0.01 0.00 0.01 0.01 0.01 0.01 0.01 0.01 0.01 0.01 0.01 0.02 0.02 0.01 0.01 0.01 0.02 0.03 0.03 0.03 0.02 0.01
0.01 0.01 0.01 0.01 0.01 0.02 0.02 0.01 0.02 0.02 0.01 0.01 0.01 0.01 0.01 0.01 0.01 0.01 0.01 0.01 0.01 0.01 0.01 0.01 0.01 0.01 0.01 0.02 0.02 0.01 0.01 0.01 0.01 0.02 0.03 0.03 0.03 0.03
0.01 0.01 0.01 0.02 0.02 0.02 0.02 0.02 0.02 0.02 0.01 0.01 0.01 0.01 0.01 0.01 0.01 0.01 0.01 0.01 0.01 0.01 0.01 0.01 0.01 0.01 0.01 0.01 0.01 0.01 0.01 0.01 0.01 0.02 0.02 0.02 0.02 0.02
MSLP
1018.37 1018.45 1018.56 1018.65 1018.70 1018.69 1018.61 1018.45 1018.22 1017.95 1017.66 1017.38 1017.12 1016.89 1016.67 1016.46 1016.25 1016.01 1015.73 1015.42 1015.07 1014.71 1014.37 1014.04 1013.76 1013.52 1013.32 1013.15 1012.98 1012.82 1012.63 1012.41 1012.15 1011.88 1011.58 1011.28 1010.99 1010.73
1018.18 1018.25 1018.34 1018.43 1018.49 1018.51 1018.47 1018.37 1018.22 1018.04 1017.83 1017.62 1017.41 1017.21 1017.01 1016.80 1016.57 1016.31 1016.01 1015.67 1015.31 1014.95 1014.59 1014.27 1013.98 1013.74 1013.52 1013.33 1013.15 1012.96 1012.75 1012.51 1012.25 1011.96 1011.66 1011.37 1011.08 1010.81
1017.89 1017.95 1018.02 1018.10 1018.16 1018.21 1018.22 1018.19 1018.12 1018.02 1017.90 1017.77 1017.61 1017.45 1017.26 1017.04 1016.79 1016.50 1016.16 1015.80 1015.42 1015.04 1014.68 1014.35 1014.06 1013.81 1013.58 1013.38 1013.18 1012.97 1012.74 1012.49 1012.22 1011.94 1011.65 1011.37 1011.10 1010.84
1017.52 1017.56 1017.62 1017.69 1017.76 1017.83 1017.88 1017.92 1017.93 1017.92 1017.88 1017.82 1017.72 1017.58 1017.40 1017.18 1016.90 1016.57 1016.20 1015.80 1015.39 1015.00 1014.63 1014.30 1014.00 1013.74 1013.51 1013.30 1013.08 1012.85 1012.61 1012.35 1012.07 1011.80 1011.52 1011.26 1011.02 1010.78
1017.06 1017.10 1017.15 1017.22 1017.30 1017.40 1017.50 1017.59 1017.67 1017.73 1017.76 1017.75 1017.70 1017.59 1017.42 1017.18 1016.88 1016.53 1016.13 1015.70 1015.28 1014.87 1014.49 1014.15 1013.85 1013.58 1013.34 1013.10 1012.87 1012.62 1012.36 1012.09 1011.81 1011.54 1011.28 1011.04 1010.81 1010.60
1016.52 1016.57 1016.63 1016.71 1016.81 1016.93 1017.06 1017.20 1017.33 1017.44 1017.52 1017.56 1017.54 1017.46 1017.30 1017.06 1016.75 1016.38 1015.97 1015.54 1015.10 1014.68 1014.30 1013.96 1013.65 1013.37 1013.11 1012.86 1012.61 1012.34 1012.06 1011.77 1011.48 1011.20 1010.94 1010.71 1010.50 1010.31
1015.89 1015.97 1016.06 1016.17 1016.29 1016.43 1016.59 1016.75 1016.91 1017.05 1017.16 1017.23 1017.24 1017.17 1017.02 1016.80 1016.50 1016.15 1015.75 1015.32 1014.90 1014.50 1014.12 1013.77 1013.46 1013.17 1012.90 1012.62 1012.34 1012.04 1011.73 1011.41 1011.10 1010.81 1010.54 1010.30 1010.10 1009.92
1015.19 1015.32 1015.45 1015.59 1015.74 1015.90 1016.07 1016.25 1016.41 1016.56 1016.69 1016.77 1016.79 1016.74 1016.62 1016.43 1016.17 1015.85 1015.49 1015.10 1014.71 1014.34 1013.98 1013.64 1013.32 1013.02 1012.73 1012.42 1012.10 1011.77 1011.43 1011.08 1010.74 1010.42 1010.12 1009.87 1009.65 1009.46
1014.43 1014.62 1014.80 1014.98 1015.16 1015.34 1015.52 1015.69 1015.85 1015.99 1016.11 1016.19 1016.22 1016.20 1016.12 1015.98 1015.77 1015.51 1015.22 1014.90 1014.56 1014.22 1013.89 1013.57 1013.25 1012.94 1012.61 1012.28 1011.93 1011.56 1011.18 1010.79 1010.41 1010.05 1009.72 1009.43 1009.18 1008.96
1013.62 1013.87 1014.11 1014.34 1014.55 1014.75 1014.93 1015.09 1015.23 1015.36 1015.46 1015.54 1015.59 1015.60 1015.56 1015.47 1015.34 1015.17 1014.95 1014.70 1014.43 1014.15 1013.85 1013.54 1013.23 1012.90 1012.55 1012.18 1011.79 1011.39 1010.97 1010.55 1010.13 1009.73 1009.36 1009.02 1008.72 1008.46
1012.80 1013.11 1013.41 1013.69 1013.93 1014.14 1014.32 1014.47 1014.60 1014.71 1014.80 1014.88 1014.94 1014.98 1014.99 1014.97 1014.92 1014.82 1014.70 1014.53 1014.33 1014.09 1013.82 1013.53 1013.21 1012.86 1012.49 1012.09 1011.67 1011.23 1010.78 1010.33 1009.88 1009.45 1009.03 1008.65 1008.30 1007.98
1011.99 1012.36 1012.71 1013.03 1013.31 1013.54 1013.73 1013.88 1014.00 1014.09 1014.18 1014.25 1014.32 1014.39 1014.45 1014.49 1014.51 1014.50 1014.45 1014.35 1014.20 1014.01 1013.76 1013.48 1013.15 1012.78 1012.38 1011.96 1011.51 1011.05 1010.58 1010.10 1009.63 1009.17 1008.73 1008.30 1007.90 1007.53
1011.21 1011.63 1012.03 1012.39 1012.71 1012.97 1013.18 1013.33 1013.45 1013.54 1013.63 1013.71 1013.79 1013.88 1013.98 1014.07 1014.14 1014.19 1014.19 1014.14 1014.03 1013.86 1013.63 1013.34 1012.99 1012.61 1012.18 1011.73 1011.27 1010.79 1010.30 1009.82 1009.34 1008.86 1008.39 1007.94 1007.50 1007.08
1010.49 1010.94 1011.38 1011.79 1012.15 1012.44 1012.68 1012.86 1012.99 1013.09 1013.18 1013.27 1013.37 1013.47 1013.59 1013.71 1013.81 1013.89 1013.92 1013.89 1013.80 1013.63 1013.39 1013.08 1012.72 1012.31 1011.86 1011.39 1010.91 1010.42 1009.93 1009.44 1008.96 1008.48 1008.00 1007.52 1007.05 1006.59
1009.82 1010.30 1010.78 1011.23 1011.63 1011.98 1012.25 1012.46 1012.62 1012.75 1012.85 1012.95 1013.05 1013.17 1013.29 1013.42 1013.52 1013.60 1013.63 1013.60 1013.50 1013.31 1013.05 1012.71 1012.32 1011.88 1011.41 1010.92 1010.42 1009.92 1009.43 1008.94 1008.45 1007.97 1007.48 1006.99 1006.50 1006.01
1009.21 1009.72 1010.23 1010.73 1011.18 1011.57 1011.89 1012.15 1012.34 1012.50 1012.62 1012.74 1012.85 1012.96 1013.07 1013.18 1013.27 1013.33 1013.34 1013.28 1013.14 1012.92 1012.62 1012.25 1011.82 1011.34 1010.84 1010.33 1009.81 1009.29 1008.79 1008.29 1007.80 1007.30 1006.81 1006.30 1005.79 1005.28
1008.68 1009.21 1009.75 1010.29 1010.78 1011.22 1011.59 1011.90 1012.14 1012.33 1012.49 1012.61 1012.73 1012.83 1012.92 1013.01 1013.06 1013.07 1013.03 1012.93 1012.74 1012.48 1012.14 1011.72 1011.25 1010.74 1010.20 1009.65 1009.10 1008.55 1008.02 1007.50 1006.98 1006.47 1005.95 1005.42 1004.89 1004.37
1008.23 1008.78 1009.35 1009.91 1010.45 1010.93 1011.35 1011.70 1011.99 1012.22 1012.40 1012.54 1012.66 1012.75 1012.82 1012.86 1012.87 1012.83 1012.74 1012.58 1012.34 1012.02 1011.63 1011.16 1010.65 1010.09 1009.50 1008.90 1008.31 1007.72 1007.14 1006.58 1006.02 1005.46 1004.90 1004.34 1003.79 1003.25
1007.88 1008.45 1009.04 1009.62 1010.18 1010.70 1011.15 1011.54 1011.87 1012.13 1012.33 1012.49 1012.60 1012.68 1012.72 1012.73 1012.69 1012.60 1012.45 1012.23 1011.93 1011.56 1011.11 1010.60 1010.03 1009.42 1008.78 1008.13 1007.47 1006.82 1006.18 1005.54 1004.92 1004.30 1003.69 1003.09 1002.51 1001.94
1007.66 1008.23 1008.82 1009.42 1009.99 1010.52 1010.99 1011.40 1011.75 1012.04 1012.26 1012.42 1012.54 1012.60 1012.62 1012.59 1012.50 1012.36 1012.16 1011.88 1011.52 1011.09 1010.59 1010.03 1009.41 1008.74 1008.04 1007.33 1006.60 1005.87 1005.15 1004.43 1003.73 1003.04 1002.36 1001.71 1001.09 1000.50
1007.57 1008.14 1008.72 1009.30 1009.86 1010.38 1010.85 1011.27 1011.63 1011.92 1012.15 1012.32 1012.43 1012.48 1012.47 1012.41 1012.28 1012.09 1011.83 1011.49 1011.08 1010.60 1010.05 1009.43 1008.75 1008.03 1007.27 1006.49 1005.69 1004.88 1004.07 1003.27 1002.48 1001.71 1000.97 1000.26 999.60 998.99
1007.63 1008.18 1008.73 1009.27 1009.80 1010.29 1010.73 1011.13 1011.48 1011.77 1012.00 1012.16 1012.26 1012.30 1012.26 1012.17 1012.00 1011.75 1011.44 1011.05 1010.58 1010.05 1009.44 1008.77 1008.05 1007.27 1006.46 1005.61 1004.74 1003.86 1002.98 1002.10 1001.23 1000.38 999.58 998.81 998.11 997.48
1007.81 1008.32 1008.83 1009.32 1009.78 1010.22 1010.62 1010.98 1011.30 1011.57 1011.78 1011.93 1012.02 1012.03 1011.97 1011.83 1011.62 1011.33 1010.96 1010.51 1009.99 1009.40 1008.74 1008.03 1007.26 1006.44 1005.58 1004.69 1003.77 1002.83 1001.88 1000.93 1000.00 999.09 998.22 997.42 996.68 996.03
Thickness
5576 5577 5577 5578 5577 5577 5576 5574 5572 5571 5571 5570 5568 5568 5566 5565 5564 5563 5563 5562 5562 5562 5561 5561 5560 5560 5560 5559 5559 5559 5558 5558 5557 5557 5556 5556 5555 5555
5568 5569 5569 5570 5569 5568 5568 5567 5566 5565 5564 5563 5560 5558 5556 5556 5555 5554 5554 5553 5553 5553 5553 5553 5552 5552 5552 5552 5551 5550 5550 5549 5549 5548 5548 5547 5547 5546
5559 5561 5561 5561 5561 5560 5559 5559 5557 5555 5555 5553 5550 5549 5547 5546 5546 5545 5545 5545 5545 5545 5545 5545 5544 5544 5544 5543 5543 5542 5541 5541 5540 5540 5539 5539 5538 5537
5551 5551 5552 5552 5551 5550 5550 5549 5549 5547 5546 5544 5541 5539 5538 5537 5536 5536 5536 5536 5536 5536 5536 5536 5536 5535 5535 5535 5534 5534 5533 5532 5532 5531 5530 5529 5528 5527
5543 5542 5542 5542 5542 5541 5540 5540 5539 5538 5536 5534 5532 5530 5529 5528 5528 5528 5527 5527 5527 5527 5527 5527 5527 5526 5526 5526 5525 5525 5524 5523 5522 5522 5521 5520 5518 5517
5535 5535 5534 5534 5533 5532 5531 5530 5529 5527 5526 5525 5523 5521 5519 5519 5518 5517 5517 5517 5518 5518 5518 5518 5518 5517 5517 5517 5516 5516 5515 5514 5513 5512 5512 5511 5509 5508
5527 5527 5527 5526 5525 5524 5523 5522 5520 5518 5516 5515 5514 5511 5510 5508 5508 5507 5507 5508 5508 5508 5507 5508 5508 5508 5508 5507 5507 5506 5505 5504 5503 5503 5502 5501 5499 5498
5519 5519 5518 5518 5517 5516 5516 5515 5513 5510 5508 5506 5505 5503 5502 5500 5499 5498 5497 5496 5497 5497 5496 5498 5497 5498 5498 5498 5498 5497 5496 5494 5493 5493 5492 5491 5489 5489
5511 5510 5510 5509 5509 5507 5507 5506 5504 5503 5502 5499 5497 5495 5493 5492 5490 5489 5487 5486 5486 5486 5484 5488 5488 5487 5489 5489 5488 5487 5486 5484 5484 5483 5482 5481 5480 5480
5504 5503 5501 5500 5500 5498 5497 5495 5494 5493 5492 5491 5489 5488 5486 5484 5482 5481 5478 5476 5476 5475 5473 5475 5477 5477 5480 5480 5479 5477 5476 5475 5474 5473 5472 5471 5471 5472
5496 5495 5494 5492 5492 5491 5488 5486 5484 5483 5482 5481 5480 5479 5477 5475 5473 5470 5467 5465 5465 5465 5462 5462 5465 5466 5469 5470 5469 5467 5466 5464 5463 5463 5462 5462 5462 5463
5487 5486 5486 5485 5485 5482 5480 5478 5475 5474 5471 5470 5469 5468 5466 5464 5462 5460 5457 5454 5453 5453 5453 5451 5452 5451 5456 5460 5459 5456 5455 5454 5453 5453 5452 5452 5453 5454
5479 5478 5477 5477 5476 5474 5472 5470 5469 5465 5462 5459 5457 5455 5454 5452 5450 5449 5447 5444 5442 5442 5442 5440 5439 5438 5438 5444 5447 5446 5444 5443 5443 5442 5442 5443 5444 5444
5471 5470 5468 5467 5466 5465 5462 5461 5458 5455 5452 5449 5447 5445 5443 5441 5440 5438 5437 5435 5434 5433 5432 5429 5428 5427 5427 5430 5434 5435 5434 5432 5432 5431 5432 5434 5435 5436
5463 5461 5459 5457 5455 5454 5452 5450 5447 5444 5442 5439 5438 5435 5433 5431 5430 5428 5427 5426 5425 5424 5423 5421 5419 5418 5417 5417 5419 5421 5422 5423 5422 5421 5422 5424 5425 5427
5453 5451 5449 5447 5444 5442 5440 5438 5436 5434 5432 5430 5428 5425 5423 5421 5419 5418 5416 5415 5415 5415 5414 5412 5410 5409 5409 5409 5408 5410 5410 5410 5412 5412 5413 5415 5417 5418
5441 5438 5436 5433 5432 5430 5428 5426 5424 5423 5421 5419 5417 5415 5413 5411 5409 5408 5406 5405 5405 5405 5405 5404 5403 5402 5402 5401 5401 5403 5402 5402 5402 5403 5404 5407 5410 5411
5431 5428 5426 5424 5423 5421 5419 5416 5414 5413 5411 5409 5407 5405 5403 5401 5400 5398 5397 5396 5396 5396 5396 5395 5394 5395 5396 5397 5396 5395 5395 5395 5395 5395 5395 5397 5402 5405
5421 5419 5418 5416 5414 5411 5409 5407 5405 5404 5401 5399 5398 5396 5394 5392 5391 5390 5389 5388 5388 5388 5386 5385 5384 5384 5386 5389 5391 5388 5387 5388 5388 5388 5388 5388 5392 5397
5412 5411 5409 5407 5405 5403 5401 5399 5397 5394 5392 5391 5389 5388 5386 5384 5383 5382 5381 5380 5380 5379 5378 5377 5376 5375 5376 5377 5378 5380 5380 5379 5379 5381 5382 5383 5385 5389
5403 5401 5400 5399 5397 5394 5393 5391 5389 5387 5385 5383 5381 5380 5378 5376 5375 5374 5373 5373 5372 5371 5370 5370 5370 5369 5368 5368 5369 5373 5373 5373 5372 5372 5374 5376 5378 5382
5395 5393 5392 5391 5389 5387 5385 5384 5382 5380 5378 5376 5374 5372 5371 5369 5367 5366 5365 5364 5364 5363 5362 5362 5362 5362 5361 5361 5361 5363 5365 5367 5367 5367 5368 5368 5368 5372
5387 5386 5385 5384 5382 5381 5379 5377 5375 5374 5371 5369 5368 5366 5363 5362 5360 5359 5358 5357 5356 5355 5355 5354 5354 5353 5352 5352 5352 5354 5355 5358 5359 5361 5364 5365 5365 5367